253  
ASUS41 KAKQ 250215  
RWRAKQ  
 
REGIONAL WEATHER ROUNDUP  
NATIONAL WEATHER SERVICE WAKEFIELD VA  
1000 PM EDT FRI SEP 24 2021  
 
NOTE: "FAIR" INDICATES FEW OR NO CLOUDS BELOW 12,000 FEET WITH NO  
SIGNIFICANT WEATHER AND/OR S TO VISIBILITY
. * = DENOTES  
STATION MAY NOT REPORT PRECIPITATION (E.G., RAIN,SNOW,ETC.),
 
THUNDER OR FOG.  
 
VAZ042-051-052>054-056-250300-  
NORTHERN VIRGINIA  
 
CITY SKY/WX TMP DP RH WIND PRES REMARKS
 
WASH NATIONAL CLEAR 64 51 62 W3 30.09S  
DULLES CLEAR 57 51 80 CALM 30.08F  
FORT BELVOIR CLEAR 55 53 94 CALM 30.08S  
QUANTICO CLEAR 60 56 86 W6 30.10R  
FREDERICKSBRG* CLEAR 56 51 84 CALM 30.08S  
STAFFORD* CLEAR 56 53 89 CALM 30.13S  
WARRENTON CLEAR 52 49 91 CALM 30.09S  
CULPEPER* CLEAR 54 53 95 CALM 30.10S  
MANASSAS* CLEAR 56 55 97 CALM 30.09F  
LEESBURG* CLEAR 57 55 94 W5 30.10S  
WINCHESTER CLEAR 54 50 87 CALM 30.08S  
FRONT ROYAL* FAIR 55 52 88 MISG 30.09S  
LURAY* FAIR 54 52 94 CALM 30.10F  

 
 
VAZ048-049-060>072-079>083-250300-  
CENTRAL AND SOUTH CENTRAL VIRGINIA  
 
CITY SKY/WX TMP DP RH WIND PRES REMARKS
 
RICHMOND CLEAR 61 56 83 CALM 30.09S  
CHESTERFIELD* FAIR 55 54 96 W10 30.10R  
PETERSBURG* CLEAR 53 52 95 CALM 30.10S  
HANOVER CLEAR 56 52 86 CALM 30.10S  
TAPPAHANNOCK* CLEAR 53 53 100 CALM 30.10S  
QUINTON* FAIR 56 56 100 CALM 30.09R  
CHARLOTTSVILLE CLEAR 58 53 84 CALM 30.10S  
GORDONSVILLE* FAIR 53 53 100 CALM 30.09S  
ORANGE* CLEAR 52 50 93 CALM 30.10S  
LOUISA* CLEAR 50 49 99 CALM 30.14S  
BUMPASS* FAIR 54 53 96 CALM 30.10S  
FARMVILLE* CLEAR 52 50 93 CALM 30.09S  
CREWE* FAIR 53 51 91 CALM 30.10R  
FORT PICKETT* FAIR 56 53 91 CALM 30.10S  
CHASE CITY* FAIR 55 52 91 CALM 30.10S  
CLARKSVILLE* FAIR 55 55 100 CALM 30.10R  
SOUTH HILL* CLEAR 53 51 93 CALM 30.15S  
LAWRENCEVILLE* FAIR 56 55 94 CALM 30.10R  
EMPORIA* CLEAR 55 55 100 CALM 30.11R  

 
 
VAZ088>098-250300-  
SOUTHEAST VIRGINIA  
 
CITY SKY/WX TMP DP RH WIND PRES REMARKS
 
NORFOLK CLEAR 68 53 58 N8 30.07S  
VIRGINIA BEACH PTCLDY 62 52 69 NE3 30.06S  
NORFOLK NAVAL CLEAR 69 51 52 N6 30.08F  
WEST POINT* N/A 54 52 94 CALM 30.09S  
SALUDA* FAIR 57 57 99 CALM 30.08F  
NEWPORT NEWS CLEAR 55 55 100 CALM 30.08S  
LANGLEY AFB CLEAR 58 58 100 CALM 30.08S  
FORT EUSTIS NOT AVBL  
WILLIAMSBURG* CLEAR 61 57 88 CALM 30.10R  
HR EXEC AP* FAIR 52 52 100 CALM 30.08F  
FRANKLIN* CLEAR 55 55 98 CALM 30.09S  
US460-WAKEFLD CLEAR 57 56 96 CALM 30.09R  

 
 
VAZ020-022-025-037-045-250300-  
WEST CENTRAL AND SOUTHWEST VIRGINIA  
 
CITY SKY/WX TMP DP RH WIND PRES REMARKS
 
STAUNTON* CLEAR 51 49 93 CALM 30.13S  
WAYNESBORO* FAIR 54 50 87 SW3 30.12S  
HOT SPRINGS VA CLEAR 49 43 79 SW8 30.17S  
LYNCHBURG CLEAR 55 50 83 CALM 30.10F  
DANVILLE CLEAR 53 48 83 CALM 30.10S  
SOUTH BOSTON* FAIR 53 51 94 CALM 30.10S  
MARTINSVILLE CLEAR 51 51 100 CALM 30.14S  
ROANOKE CLEAR 56 50 80 CALM 30.13S  
BLACKSBURG CLEAR 52 52 100 CALM 30.16F  
DUBLIN* NOT AVBL  
MARION* CLEAR 46 46 100 CALM 30.18S  
HILLSVILLE* CLEAR 53 47 81 SE3 30.15R  
RICHLANDS* FAIR 53 44 73 CALM 30.16F  
WISE* CLEAR 52 45 76 CALM 30.16F  
ABINGDON* NOT AVBL  

 
 
MDZ021>025-VAZ099-100-250300-  
SOUTHERN MARYLAND AND THE DELMARVA PENINSULA  
 
CITY SKY/WX TMP DP RH WIND PRES REMARKS
 
PATUXENT RIVER CLEAR 58 54 86 SW5 30.08S  
BAY BRIDGE APT NOT AVBL  
LEONARDTOWN CLEAR 54 54 100 CALM 30.10S  
DOVER CLEAR 60 50 68 CALM 30.07S HAZE  
GEORGETOWN CLEAR 57 53 86 CALM 30.09R  
EASTON CLEAR 57 57 100 CALM 30.12S  
CAMBRIDGE CLEAR 55 55 100 CALM 30.09S  
SALISBURY CLEAR 58 54 86 CALM 30.08S  
TANGIER FAIR 69 52 54 N8 30.08S  
OCEAN CITY N/A N/A N/A N/A MISG 30.08S  
WALLOPS ISLAND CLEAR 62 53 72 N3 30.09R  
ACCOMACK* CLEAR 55 -9 7 E5 30.08S  

 
 
NCZ012>017-030>032-250300-  
NORTH CENTRAL AND EASTERN NORTH CAROLINA  
 
CITY SKY/WX TMP DP RH WIND PRES REMARKS
 
ROANOKE RAPIDS FAIR 54 54 100 MISG 30.09S  
RALEIGH CLEAR 58 53 84 CALM 30.10R  
ELIZABETH CITY CLOUDY 67 55 65 N8 30.07S  
AHOSKIE* CLEAR 57 57 100 CALM 30.09S  
EDENTON* PTCLDY 63 60 88 N5 30.08S  
CURRITUCK* MOCLDY 63 54 71 CALM 30.07R  
KILL DEVIL HLS CLOUDY 69 56 63 N5 30.04S  
MANTEO CLOUDY 70 57 64 NE13 30.05F  
CAPE HATTERAS CLOUDY 70 64 81 VRB7 30.04R  
TARBORO* FAIR 58 57 98 CALM 30.08R  
GOLDSBORO MOCLDY 62 54 76 CALM 30.06R  
WASHINGTON CLEAR 61 58 91 CALM 30.08S  
GREENVILLE CLEAR 63 59 88 CALM 30.09S  
NEW BERN CLEAR 66 58 75 E5 30.08R  
WILMINGTON CLEAR 66 61 84 NE3 30.05S  

 
 
VAZ048-250300-  
ELSEWHERE  
 
CITY SKY/WX TMP DP RH WIND PRES REMARKS
 
HARRISBURG PA CLEAR 60 53 77 E6 30.07S  
BALTIMORE CLEAR 58 52 80 CALM 30.08S  
ANNAPOLIS CLEAR 62 57 83 CALM 30.09R  
ANDREWS AFB CLEAR 56 49 77 CALM 30.07S  
PHILADELPHIA CLEAR 64 49 57 NW5 30.08S  
HENDERSON NC CLEAR 53 53 99 CALM 30.10S  
GREENSBORO CLEAR 58 50 75 NW3 30.11R  
ROCKY MOUNT CLEAR 59 54 83 CALM 30.09R  

 
 
VAZ100-250300-  
MARINE  
 
STATION/POSITION TIME TEMP WIND PRES WAVE SWELL
 
AIR SEA DIR/SP/G HT/PER HT/PER  
(UTC) (F) (DEG/KT/KT) (MB) (FT/S) (FT/S)  
CAPE MAY NJ 0130 69 74 350/ 2/ 9 1018.3R  
LEWES DE 0130 66 73 270/ 6/ 7 1018.5R  
15NM E FENWICK I 0150 71 73 350/ 12/ 14 1018.3R 4/ 8 3/ 8  
OCEAN-CITY-INLET 0130 68 74 340/ 4/ 5 1019.7R  
44089 WALLOPS IS 0156 73 N/A 4/ 7 2/12  
WACHAPREAGUE VA 0124 64 75 350/ 2/ 3 1018.7  
THOMAS POINT MD 0200 70 75 320/ 5/ 5 1019.6R  
GOOSES REEF MD 0154 69 76 350/ 8/ 12 1019.8R 0  
COVE POINT MD 0130 68 240/ 5/ 6 1018.7R  
SOLOMONS ISLAND 0130 65 78 320/ 2/ 3 1018.6R  
BISHOPS HEAD MD 0130 69 73 10/ 2/ 3 1018.8S  
PINEY POINT MD 0124 50/ 3/ 3 N/A  
POTOMAC MD 0154 69 77 350/ 6/ 8 N/A 0  
CAMBRIDGE MD 0130 65 75 CALM / 1 1018.7R  
LEWISETTA VA 0124 65 75 240/ 2/ 3 1018.7  
RAPPAHANNOCK LGT 0124 340/ 10/ 13 1019.2  
STINGRAY PT 0154 68 330/ 8/ 12 1020.0R  
YORK RVR RNG VA 0124 71 360/ 5/ 9 N/A  
YORKTOWN VA 0124 70 77 40/ 6/ 8 1018.3  
DOMINION TERM VA 0124 67 30/ 4/ 5 1018.8  
KIPTOPEKE VA 0124 76 40/ 4/ 5 N/A  
CHES BAY BRIDGE 0124 72 30/ 12/ 13 1017.4  
CAPE HENRY VA 0124 71 20/ 13/ 15 1018.6  
WILLOUBY STN VA 0124 70 360/ 9/ 11 1018.9R  
S CRANEY ISL VA 0124 71 20/ 10/ 12 1018.3  
CAPE HENRY BUOY 0156 75 N/A 4/ 6 2/11  
64NM E OF VA BCH 0150 68 76 20/ 16/ 19 1016.9R 5/ 6 3/ 8  
DUCK PIER NC 0124 71 10/ 12/ 16 1017.6  
44100 DUCK FRF 0156 75 N/A 5/ 6 2/13  
44056 DUCK FRF 0156 74 N/A 5/ 6 2/11  
OREGON INLET NC 0124 70 76 360/ 12/ 15 1017.3R  
HATTERAS NC 0124 71 75 20/ 14/ 19 1017.4  
DIAMOND SHLS NC 0150 72 82 360/ 17/ 21 1016.4R 5/ 7 2/ 8  
CAPE LOOKOUT NC 0200 71 10/ 9/ 11 1018.0S  

 
 
 
CLICK HERE TO GO TO PREVIOUS BULLETINS.

The Nexlab VA Page
The Nexlab NC Page
The Nexlab MD Page Main Text Page